Regional Weather Roundup
Issued by NWS

Home | Current Version | Previous Version | Text Only | Print | Product List | Glossary On
Versions: 1 2 3 4 5 6 7 8 9 10 11 12 13 14 15 16 17 18 19 20 21 22 23 24 25 26 27 28 29 30 31 32 33 34 35 36 37 38 39 40 41 42 43 44 45 46 47 48 49 50
000
ASUS43 KLOT 270212
RWRIL

ILLINOIS REGIONAL WEATHER ROUNDUP
NATIONAL WEATHER SERVICE CHICAGO/ROMEOVILLE IL
800 PM CST SUN FEB 26 2017

NOTE: "FAIR" INDICATES FEW OR NO CLOUDS BELOW 12,000 FEET WITH NO
SIGNIFICANT WEATHER AND/OR OBSTRUCTIONS TO VISIBILITY.

* THESE STATIONS ARE NOT UNDER NWS QUALITY CONTROL. THEY ALSO MAY NOT
  REPORT WEATHER SUCH AS PRECIPITATION OR FOG.

ILZ001-002-007-009-015-016-024-270300-
NORTHWEST ILLINOIS

CITY           SKY/WX    TMP DP  RH WIND       PRES   REMARKS
MOLINE         MOCLDY    41  30  65 W6        30.00R
STERLING*      PTCLDY    39  33  79 SW6       30.00R WCI  35
$$

ILZ003-004-008-010-011-017-018-270300-
NORTH CENTRAL ILLINOIS

CITY           SKY/WX    TMP DP  RH WIND       PRES   REMARKS
ROCKFORD       CLEAR     38  29  70 SW9       29.99R WCI  31
FREEPORT*      CLOUDY    37  26  64 W6        29.99R WCI  32
ROCHELLE*      MOCLDY    37  32  81 S15       29.99S WCI  28
DE KALB*       PTCLDY    38  31  78 SW14      29.99R WCI  29
PERU*          CLOUDY    41  27  57 SW9       30.03R
$$

ILZ005-006-012>014-019>023-270300-
NORTHEAST ILLINOIS

CITY           SKY/WX    TMP DP  RH WIND       PRES   REMARKS
CHICAGO-OHARE  LGT RAIN  44  28  53 SW16G25   29.99R
CHICAGO-MIDWAY CLOUDY    45  22  40 SW18      30.01R
AURORA         MOCLDY    42  31  64 SW13      30.01R
LANSING*       MOCLDY    39  26  60 SW12      30.04R WCI  31
JOLIET*        MOCLDY    42  27  53 SW6       30.03R
WAUKEGAN       MOCLDY    40  27  59 SW12      29.96R
DUPAGE AIRPORT CLOUDY    41  28  60 SW13      29.99R
KANKAKEE*      CLEAR     37  24  60 SW13      30.06R WCI  28
WHEELING       MOCLDY    42  26  53 SW9       29.99R
MORRIS*        MOCLDY    38  26  61 SW8       30.02R WCI  33
ROMEOVILLE*    MOCLDY    40  29  63 SW10      30.02R
NORTHERLY ISL    N/A     45  22  40 S14         N/A
$$

LMZ740>746-270300-
SOUTHERN LAKE MICHIGAN

STATION/POSITION SKY/WX   TEMP    WIND        PRES    VSBY  WAVE
                          AIR SEA DIR/SP/G                  HT/PER
                          (F)     (DEG/KT/KT) (MB)    (MI)  (FT/S)
HARRISON CRIB              46     230/ 12/ 15   N/A
BURNHAM HARBOR             44     180/ 11/ 16   N/A
CALUMET HARBOR             43     200/ 11/ 21 1015.9R
BURNS HARBOR               43     210/ 16/ 23 1016.9R
MICHIGAN CITY              43     180/ 19/ 23   N/A
$$

ILZ025>027-034>036-040-047-049-050-058-095>099-270300-
WEST-CENTRAL ILLINOIS

CITY           SKY/WX    TMP DP  RH WIND       PRES   REMARKS
QUINCY         CLEAR     38  27  64 S10       30.04R WCI  31
GALESBURG*     CLOUDY    40  33  76 W5          N/A
MACOMB*        CLEAR     39  24  54 S10       30.05R WCI  32
JACKSONVILLE*  CLEAR     38  24  57 S7        30.07R WCI  32
PITTSFIELD*    CLEAR     39  30  68 S7        30.07R WCI  34
$$

ILZ028>032-037-038-041>044-048-051>054-059>061-270300-
CENTRAL ILLINOIS

CITY           SKY/WX    TMP DP  RH WIND       PRES   REMARKS
PONTIAC        CLEAR     39  27  62 S13       30.05R WCI  31
BLOOMINGTON    CLEAR     34  24  67 S12       30.06R WCI  25
DECATUR        CLOUDY    40  22  48 S10       30.08S
PEORIA         CLEAR     39  24  55 S12       30.04R WCI  32
LACON*         PTCLDY    40  25  55 S8        30.03R
LINCOLN*       CLEAR     36  25  65 S3        30.07R
SPRINGFIELD    CLEAR     40  23  50 S10       30.07R
TAYLORVILLE    CLOUDY    39  24  54 S7        30.09R WCI  34
$$

ILZ033-039-045-046-055>057-062-063-270300-
EAST-CENTRAL ILLINOIS

CITY           SKY/WX    TMP DP  RH WIND       PRES   REMARKS
CHAMPAIGN      PTCLDY    34  20  56 S10       30.08S WCI  26
RANTOUL*       PTCLDY    42  26  52 S9        30.07F
MATTOON        PTCLDY    42  22  44 S3        30.09R
PARIS*         CLOUDY    36  25  65 S5        30.11S WCI  32
$$

ILZ079-100>102-270300-
SOUTHWEST ILLINOIS

CITY           SKY/WX    TMP DP  RH WIND       PRES   REMARKS
ALTON          CLOUDY    41  32  70 S12       30.10R
BELLEVILLE     CLOUDY    42  33  70 CALM      30.10R
CAHOKIA*       CLOUDY    43  32  65 S6        30.12R
SPARTA*        DRIZZLE   43  32  66 CALM      30.12S
$$

ILZ064>066-069>071-074>076-080>082-084>086-088>090-092>094-270300-
SOUTH-CENTRAL ILLINOIS

CITY           SKY/WX    TMP DP  RH WIND       PRES   REMARKS
CARBONDALE     CLOUDY    44  31  60 CALM      30.12R
CAIRO*         CLOUDY    48  26  41 E6        30.10F
EFFINGHAM*     CLOUDY    44  29  56 S7        30.13R
MARION         CLOUDY    45  25  45 CALM      30.12S
MT. VERNON     LGT RAIN  42  34  73 SW8       30.13R
CENTRALIA*     CLOUDY    42  34  72 S7        30.11S
SALEM*         CLOUDY    43  32  65 CALM      30.12R
METROPOLIS*    CLOUDY    47  27  45 CALM      30.12S
$$

ILZ067-068-072-073-078-083-087-091-270300-
SOUTHEAST ILLINOIS

CITY           SKY/WX    TMP DP  RH WIND       PRES   REMARKS
LAWRENCEVILLE  CLOUDY    43  27  53 S7        30.13R
FLORA*         CLOUDY    43  29  59 SW5       30.13R
FAIRFIELD*     CLOUDY    46  29  53 SW5       30.13R
HARRISBURG*    CLOUDY    47  27  45 CALM      30.13S
ROBINSON*      CLOUDY    41  24  51 S7        30.13R
CARMI*         CLOUDY    46  31  55 SW5       30.13S
$$

ABBREVIATIONS USED IN REMARKS
   TC - TEMPERATURE IN CELSIUS
  WCI - WIND CHILL INDEX
   HX - HEAT INDEX
  VSB - VISIBILITY
$$





USA.gov is the U.S. government's official web portal to all federal, state and local government web resources and services.